SCP
0 0 0 0 0 0 0 0 0 0 0 -0 0 0 0 0 0 0 0 0 0 0 0 1 1 1 1 1 0 1 1 0 1 0 -0 0 0 0 0 0 0 0 0 0
0 0 0 0 0 0 0 0 0 0 0 0 0 0 0 0 0 0 0 0 0 1 1 1 0 0 1 0 0 0 1 0 1 1 1 0 -0 0 0 0 0 0 0 0
0 0 0 0 0 0 0 0 0 0 0 0 0 0 0 0 0 0 0 0 1 1 1 1 1 0 0 1 1 0 0 1 0 0 0 0 0 0 0 0 0 0 0 0
0 0 0 0 0 0 0 0 0 0 0 0 0 0 1 1 2 2 1 1 0 1 1 1 1 0 1 1 1 1 1 1 1 0 0 0 0 0 0 1 0 0 0 0
0 0 0 0 0 0 0 0 0 0 0 0 0 0 1 2 3 2 1 0 0 0 1 2 2 2 2 2 2 2 2 1 1 1 1 1 1 0 1 1 1 1 0 0
0 0 0 0 0 -0 0 0 0 0 0 0 0 0 3 1 1 1 1 1 0 1 2 2 3 3 2 3 3 3 2 2 2 2 2 1 1 1 1 1 1 1 1 1
0 0 0 0 0 -0 0 0 0 0 0 0 1 2 3 2 1 1 1 1 1 1 2 2 2 2 3 3 3 3 2 2 2 2 2 2 2 2 2 2 1 1 1 1
0 0 0 0 0 0 0 0 0 0 0 3 3 2 1 1 1 0 1 1 1 2 2 2 2 2 2 3 3 4 4 3 3 2 3 3 3 3 2 1 1 1 1 1
0 0 0 -0 -0 0 -0 0 4 1 4 3 2 2 1 1 1 1 1 1 1 1 2 2 2 3 4 4 5 5 3 3 3 2 2 3 2 1 0 0 0 1 0 1
-0 0 0 -0 -0 -0 0 1 0 2 2 1 1 1 1 1 1 1 1 1 1 1 1 1 1 2 2 3 4 4 5 4 4 3 2 0 0 0 0 0 0 0 0 1
0 0 -0 -0 -0 0 -0 0 1 1 3 3 2 2 1 1 1 1 1 0 1 1 1 2 1 2 2 2 2 3 3 3 2 2 1 0 0 0 0 0 0 0 0 0
0 0 -0 0 0 0 -0 0 1 1 1 1 2 2 1 1 1 1 1 1 1 1 1 1 1 1 1 2 1 1 1 1 1 1 1 1 1 0 0 0 0 0 0 0
0 -0 0 0 -0 -0 0 0 0 0 0 0 0 0 1 1 1 1 1 2 3 2 2 2 1 1 1 1 1 1 1 1 1 0 1 0 1 1 0 0 0 0 0 0
0 -0 -0 0 0 0 0 0 0 0 0 0 0 0 0 1 1 2 3 3 3 2 2 2 2 2 1 1 0 0 1 0 0 1 0 0 0 0 0 0 0 0 0 0
0 -0 0 0 1 1 0 0 0 0 0 0 0 0 1 1 2 1 1 1 1 1 1 1 1 1 1 0 0 0 1 1 0 0 0 0 0 0 0 0 0 0 0 0
0 0 0 0 0 0 0 0 0 0 0 0 0 0 1 1 1 0 1 1 1 1 0 1 0 0 1 1 1 1 0 0 0 0 0 0 0 0 0 0 0 0 0 0
0 0 0 0 0 0 0 0 0 0 0 1 1 1 0 0 0 0 0 0 0 0 0 0 0 0 0 0 1 1 0 0 0 0 0 0 0 0 0 0 0 0 0 0
0 0 0 0 0 0 0 0 0 0 1 1 1 0 0 0 0 0 0 0 0 0 0 0 0 0 0 0 0 0 0 0 0 0 0 0 0 0 0 0 0 0 0 0
0 0 0 0 0 -0 0 0 0 -0 1 1 1 0 0 0 0 0 0 0 0 0 0 0 0 0 0 0 0 0 0 0 0 0 0 0 0 0 0 0 0 0 0 0
0 0 0 0 0 0 0 0 0 0 0 0 0 0 0 0 0 0 0 0 0 0 0 0 0 0 0 0 0 0 -0 -0 0 0 0 0 0 0 0 0 0 0 0 0
0 0 0 0 0 0 0 0 1 1 0 0 0 0 1 0 0 0 0 0 0 0 0 0 0 0 0 0 -0 0 0 0 0 0 0 0 0 0 0 0 0 0 0 0
0 0 0 0 0 0 0 1 1 1 0 0 0 1 1 0 0 0 0 0 0 0 0 0 0 0 0 0 0 0 0 0 0 0 0 0 0 0 0 0 0 0 0 0
0 0 0 0 1 0 1 1 0 0 0 1 0 0 0 0 0 0 0 0 0 0 0 0 0 0 0 0 0 0 0 0 0 0 0 0 0 0 0 0 0 0 0 0
0 0 0 0 0 1 1 1 1 0 0 0 0 0 0 0 0 0 0 0 0 0 0 0 0 0 0 0 0 0 0 0 0 0 0 0 0 0 0 0 0 0 0 0
0 0 0 0 1 1 1 0 1 0 0 0 0 0 0 0 0 0 0 0 0 -0 0 -0 -0 -0 -0 0 0 0 0 0 0 0 0 0 0 0 0 0 0 0 0 0
0 0 0 0 0 1 0 1 0 0 0 0 0 0 0 0 0 0 0 0 -0 -0 -0 0 -0 -0 -0 -0 -0 -0 -0 0 0 0 -0 0 0 0 0 0 0 0 0 0
0 0 0 0 0 0 0 0 0 0 0 0 0 0 0 0 0 0 0 -0 -0 -0 0 0 -0 -0 -0 -0 0 0 0 0 0 0 0 0 0 0 0 0 0 0 0 0
Wind_Speed_500mb
43 39 40 45 41 42 41 45 39 45 41 41 20 12 26 26 20 17 27 31 23 31 43 46 47 47 48 41 39 39 39 38 38 37 26 30 37 33 30 33 30 32 28 24
39 43 41 44 48 47 46 46 44 49 45 18 34 14 18 16 17 12 13 12 31 29 41 47 51 52 50 45 42 45 48 42 42 42 36 40 42 33 40 33 29 30 34 30
39 39 41 45 48 48 43 41 46 47 41 23 35 28 17 29 15 9 9 9 6 37 34 39 46 48 46 46 45 44 49 44 47 46 50 46 39 33 34 36 40 31 32 30
34 34 50 38 42 43 48 42 34 46 40 31 31 48 29 12 22 17 5 5 15 11 36 36 36 37 40 40 44 42 44 47 51 44 45 48 51 49 46 48 44 41 39 40
22 21 23 59 42 41 46 44 41 36 27 35 33 64 39 30 24 15 10 3 6 10 13 34 35 38 41 39 38 42 40 38 45 45 48 50 54 51 48 48 50 46 42 37
7 11 18 14 60 90 53 37 45 47 36 36 30 17 25 37 31 22 15 12 10 7 9 14 16 29 36 38 36 37 37 38 45 50 49 51 51 52 47 48 44 42 42 39
27 18 17 24 38 83 44 26 38 59 52 23 8 31 51 44 31 24 20 22 23 21 15 10 8 15 29 36 37 38 34 38 42 50 50 50 50 46 48 51 49 48 44 38
20 32 35 31 33 29 33 85 47 43 42 61 69 66 43 38 31 25 22 20 20 22 19 12 6 7 16 20 30 32 38 40 46 46 49 50 51 48 45 43 44 41 43 43
30 13 44 44 45 74 88 58 22 34 71 62 60 52 40 34 29 21 18 14 14 14 9 5 6 10 7 17 19 31 38 41 45 46 48 49 48 44 28 22 32 38 44 41
28 12 30 57 48 63 77 21 28 40 44 49 49 44 35 28 21 16 12 10 7 5 3 4 5 5 6 9 20 26 23 27 35 39 39 42 52 40 45 50 30 54 26 30
21 33 30 24 22 63 109 58 38 38 33 40 36 29 26 19 13 9 6 4 4 4 3 2 7 7 7 8 12 12 17 20 16 17 25 27 28 28 36 62 76 64 47 48
8 1 22 30 63 74 119 41 29 35 32 24 26 25 19 18 12 9 7 5 6 4 5 3 5 6 14 5 4 3 6 10 13 14 12 20 21 19 27 34 47 72 54 52
13 42 48 18 37 37 23 23 24 26 24 22 18 20 21 20 16 18 16 16 13 9 7 4 3 7 15 7 6 4 5 16 17 17 12 10 14 13 12 13 19 33 37 42
39 83 86 83 32 20 20 20 17 21 16 16 16 14 15 18 16 13 13 13 14 11 10 6 3 6 9 10 10 6 6 10 6 11 13 14 15 11 10 11 12 10 20 22
4 41 7 5 21 12 11 14 16 17 13 13 11 12 11 13 15 8 7 3 3 4 8 8 3 6 8 7 8 6 3 5 6 9 6 5 4 8 8 9 12 12 24 30
14 6 8 2 33 24 11 13 12 13 15 14 12 11 10 10 1 10 7 5 3 6 3 4 1 2 3 7 6 3 10 12 4 2 8 5 2 4 7 11 9 9 11 19
13 11 14 14 14 9 21 23 20 16 22 19 18 19 15 14 14 11 8 8 4 5 2 3 3 7 9 7 4 4 4 9 6 6 1 6 3 2 2 4 7 10 11 17
9 18 25 29 26 24 26 26 24 32 20 21 25 24 22 19 16 16 10 3 7 8 4 3 4 6 11 5 2 2 2 4 6 6 9 9 4 9 9 12 8 14 21 17
11 15 22 29 35 39 37 35 27 31 39 38 31 28 25 20 16 12 11 10 8 5 1 3 14 16 3 2 10 4 3 4 5 8 9 9 10 7 8 11 10 10 13 22
18 18 24 24 30 36 39 27 35 25 38 41 34 28 25 21 16 14 12 11 11 13 6 5 10 8 6 6 7 6 6 12 10 12 15 9 13 11 11 12 15 14 13 15
22 24 26 30 29 35 36 38 24 29 30 31 28 26 26 22 19 17 15 12 8 15 9 11 11 10 6 6 3 6 10 11 11 11 10 12 13 13 18 13 12 12 10 14
25 26 29 32 29 25 36 31 17 17 27 25 24 27 27 25 21 15 9 18 15 17 9 10 9 10 16 13 15 14 13 15 16 15 16 15 16 18 17 16 16 15 19 14
28 31 32 33 32 32 42 41 37 52 42 34 32 31 29 22 19 19 18 20 19 19 12 16 30 26 19 16 20 20 17 16 17 16 15 16 15 17 18 18 15 12 9 20
30 34 34 36 36 26 46 37 45 43 48 36 30 34 29 27 25 24 29 29 30 25 28 29 24 23 21 14 13 12 11 10 12 10 13 11 15 14 15 15 14 11 14 18
31 32 32 32 31 28 34 41 43 43 36 36 37 36 30 28 28 27 31 28 30 25 18 15 12 11 14 9 5 3 1 2 5 11 12 19 16 16 16 18 24 23 21 14
28 29 26 23 24 20 37 42 42 42 39 39 39 35 29 30 32 32 23 17 16 21 18 14 7 4 6 7 5 6 5 5 8 9 19 15 21 16 18 22 22 26 30 31
27 15 8 9 9 24 34 10 43 46 41 43 39 32 31 28 26 23 22 15 20 9 18 15 14 6 7 10 3 10 11 9 9 8 14 18 16 18 17 18 26 27 30 32
Wind_Direction_500mb
271 270 268 265 261 216 236 252 248 254 264 174 165 81 239 182 103 100 149 153 192 179 179 188 192 200 201 205 202 194 203 199 209 214 211 203 221 211 199 215 214 211 219 226
268 266 260 262 266 262 218 228 251 264 271 93 115 46 277 192 166 165 166 207 182 181 180 191 197 205 206 199 208 194 209 202 207 215 201 208 221 210 206 198 204 211 208 208
251 251 257 252 246 258 258 225 222 246 258 230 83 318 156 115 126 162 170 173 261 181 188 196 204 212 207 199 213 203 212 202 214 221 207 206 212 214 203 207 215 212 216 212
269 283 242 256 254 247 253 267 237 228 247 259 157 203 97 91 87 112 118 145 256 228 192 197 204 209 205 208 215 217 217 211 215 223 203 205 205 214 214 213 214 216 219 227
275 266 327 305 254 251 237 249 259 265 252 232 165 127 134 122 114 103 100 147 230 226 231 203 202 207 207 211 217 223 229 222 214 224 214 215 214 216 214 215 216 219 221 224
220 215 258 237 280 279 271 232 229 247 254 246 209 198 128 126 116 109 98 98 98 138 120 161 187 202 205 210 217 231 232 234 222 230 226 222 224 222 224 220 220 219 218 219
230 241 253 224 277 290 251 244 222 214 235 231 156 121 126 123 121 117 107 92 87 92 108 108 164 213 220 224 237 244 245 245 243 237 235 230 231 234 230 225 223 218 221 217
319 271 248 37 345 332 338 296 228 209 216 112 111 112 125 123 127 126 110 96 90 91 83 81 102 227 231 238 247 241 236 239 244 248 239 237 231 233 233 236 228 229 218 215
209 264 330 336 332 312 285 280 79 141 117 118 116 118 130 140 129 119 108 99 94 98 114 123 160 142 174 225 227 235 250 245 243 247 244 242 244 241 220 254 254 253 245 232
312 356 352 327 318 279 292 10 68 81 103 120 125 131 130 125 130 123 116 98 94 91 132 340 350 342 227 241 241 246 247 244 251 253 255 253 247 231 229 258 287 253 264 267
276 295 330 300 1 214 253 317 93 95 78 85 111 105 116 123 117 113 120 133 148 97 128 61 331 309 269 301 269 225 240 258 281 290 287 276 273 252 258 244 247 237 239 227
197 166 271 316 328 248 257 234 96 96 95 94 106 118 123 117 110 107 115 149 161 103 87 71 48 324 345 8 359 173 250 284 287 266 275 292 298 278 265 274 247 234 237 246
215 184 190 147 271 239 91 104 103 105 111 116 118 127 127 121 113 103 96 95 105 104 81 67 112 332 295 22 23 12 241 246 259 274 273 281 268 278 287 282 259 254 262 264
264 202 188 205 219 121 129 112 101 107 112 116 120 119 129 134 113 117 113 117 118 131 93 87 159 228 274 306 313 319 324 353 334 279 268 260 236 242 228 248 257 258 260 274
118 274 282 181 46 110 128 126 132 131 132 130 130 128 134 139 131 132 207 230 132 133 136 138 71 25 33 48 20 7 350 307 316 319 351 326 313 298 287 267 258 260 280 283
226 25 325 182 159 189 178 191 190 157 162 169 160 153 145 136 185 139 136 124 156 169 55 53 336 280 143 94 53 322 342 336 248 319 351 359 292 305 302 314 326 332 301 288
328 301 290 276 295 249 216 213 216 213 181 183 165 153 158 158 150 146 156 119 103 96 55 15 328 306 204 164 187 197 340 330 76 25 265 252 303 326 326 317 316 301 299 335
275 276 275 277 278 272 267 263 274 200 163 172 160 155 161 163 166 162 166 191 111 110 10 307 295 112 64 62 93 105 346 274 300 273 238 288 280 298 316 319 324 318 328 349
289 268 263 255 254 260 264 263 289 250 170 161 157 158 158 160 158 163 168 183 160 172 47 84 94 83 65 61 134 110 84 57 21 24 13 2 2 332 267 269 269 288 275 291
325 312 300 279 267 260 266 267 202 222 144 140 149 153 153 156 153 155 167 146 128 168 161 171 112 94 56 114 107 151 142 42 29 30 27 42 5 336 323 298 283 268 284 268
327 322 310 303 276 260 252 261 184 154 144 133 146 153 160 155 168 162 170 169 189 146 154 136 131 129 120 177 112 32 107 65 64 45 16 17 23 26 14 1 340 345 353 311
322 319 310 300 309 247 236 197 179 145 134 150 160 163 162 159 161 157 114 162 158 142 132 134 180 145 129 78 72 87 78 71 62 54 46 37 28 22 17 19 6 13 3 353
316 317 307 299 294 298 205 193 176 166 149 167 169 170 163 163 156 158 138 138 136 121 140 154 139 129 100 95 87 83 85 76 66 58 47 40 46 35 21 10 3 352 25 1
313 314 305 289 288 280 208 173 183 159 149 163 168 157 156 153 145 143 147 152 141 129 125 127 139 135 117 106 91 79 71 66 61 23 14 14 20 36 4 351 355 360 345 346
304 306 302 288 282 251 217 167 145 137 152 159 160 159 159 158 150 147 142 158 157 148 134 117 122 136 152 113 82 68 96 124 52 71 30 354 343 332 337 325 309 317 336 306
298 299 292 290 273 232 200 166 154 153 164 156 157 158 151 158 147 158 164 155 160 174 191 215 174 121 141 184 185 258 288 133 41 52 9 348 6 14 9 8 8 11 356 342
287 283 284 267 211 167 178 226 152 150 155 150 154 155 150 151 167 171 178 191 208 214 211 217 177 165 234 193 26 57 80 68 54 22 4 353 6 7 358 360 357 344 335 325
Wind_Speed_850mb
43 39 40 45 41 42 41 45 39 45 41 41 20 12 26 26 20 17 27 31 23 31 43 46 47 47 48 41 39 39 39 38 38 37 26 30 37 33 30 33 30 32 28 24
39 43 41 44 48 47 46 46 44 49 45 18 34 14 18 16 17 12 13 12 31 29 41 47 51 52 50 45 42 45 48 42 42 42 36 40 42 33 40 33 29 30 34 30
39 39 41 45 48 48 43 41 46 47 41 23 35 28 17 29 15 9 9 9 6 37 34 39 46 48 46 46 45 44 49 44 47 46 50 46 39 33 34 36 40 31 32 30
34 34 50 38 42 43 48 42 34 46 40 31 31 48 29 12 22 17 5 5 15 11 36 36 36 37 40 40 44 42 44 47 51 44 45 48 51 49 46 48 44 41 39 40
22 21 23 59 42 41 46 44 41 36 27 35 33 64 39 30 24 15 10 3 6 10 13 34 35 38 41 39 38 42 40 38 45 45 48 50 54 51 48 48 50 46 42 37
7 11 18 14 60 90 53 37 45 47 36 36 30 17 25 37 31 22 15 12 10 7 9 14 16 29 36 38 36 37 37 38 45 50 49 51 51 52 47 48 44 42 42 39
27 18 17 24 38 83 44 26 38 59 52 23 8 31 51 44 31 24 20 22 23 21 15 10 8 15 29 36 37 38 34 38 42 50 50 50 50 46 48 51 49 48 44 38
20 32 35 31 33 29 33 85 47 43 42 61 69 66 43 38 31 25 22 20 20 22 19 12 6 7 16 20 30 32 38 40 46 46 49 50 51 48 45 43 44 41 43 43
30 13 44 44 45 74 88 58 22 34 71 62 60 52 40 34 29 21 18 14 14 14 9 5 6 10 7 17 19 31 38 41 45 46 48 49 48 44 28 22 32 38 44 41
28 12 30 57 48 63 77 21 28 40 44 49 49 44 35 28 21 16 12 10 7 5 3 4 5 5 6 9 20 26 23 27 35 39 39 42 52 40 45 50 30 54 26 30
21 33 30 24 22 63 109 58 38 38 33 40 36 29 26 19 13 9 6 4 4 4 3 2 7 7 7 8 12 12 17 20 16 17 25 27 28 28 36 62 76 64 47 48
8 1 22 30 63 74 119 41 29 35 32 24 26 25 19 18 12 9 7 5 6 4 5 3 5 6 14 5 4 3 6 10 13 14 12 20 21 19 27 34 47 72 54 52
13 42 48 18 37 37 23 23 24 26 24 22 18 20 21 20 16 18 16 16 13 9 7 4 3 7 15 7 6 4 5 16 17 17 12 10 14 13 12 13 19 33 37 42
39 83 86 83 32 20 20 20 17 21 16 16 16 14 15 18 16 13 13 13 14 11 10 6 3 6 9 10 10 6 6 10 6 11 13 14 15 11 10 11 12 10 20 22
4 41 7 5 21 12 11 14 16 17 13 13 11 12 11 13 15 8 7 3 3 4 8 8 3 6 8 7 8 6 3 5 6 9 6 5 4 8 8 9 12 12 24 30
14 6 8 2 33 24 11 13 12 13 15 14 12 11 10 10 1 10 7 5 3 6 3 4 1 2 3 7 6 3 10 12 4 2 8 5 2 4 7 11 9 9 11 19
13 11 14 14 14 9 21 23 20 16 22 19 18 19 15 14 14 11 8 8 4 5 2 3 3 7 9 7 4 4 4 9 6 6 1 6 3 2 2 4 7 10 11 17
9 18 25 29 26 24 26 26 24 32 20 21 25 24 22 19 16 16 10 3 7 8 4 3 4 6 11 5 2 2 2 4 6 6 9 9 4 9 9 12 8 14 21 17
11 15 22 29 35 39 37 35 27 31 39 38 31 28 25 20 16 12 11 10 8 5 1 3 14 16 3 2 10 4 3 4 5 8 9 9 10 7 8 11 10 10 13 22
18 18 24 24 30 36 39 27 35 25 38 41 34 28 25 21 16 14 12 11 11 13 6 5 10 8 6 6 7 6 6 12 10 12 15 9 13 11 11 12 15 14 13 15
22 24 26 30 29 35 36 38 24 29 30 31 28 26 26 22 19 17 15 12 8 15 9 11 11 10 6 6 3 6 10 11 11 11 10 12 13 13 18 13 12 12 10 14
25 26 29 32 29 25 36 31 17 17 27 25 24 27 27 25 21 15 9 18 15 17 9 10 9 10 16 13 15 14 13 15 16 15 16 15 16 18 17 16 16 15 19 14
28 31 32 33 32 32 42 41 37 52 42 34 32 31 29 22 19 19 18 20 19 19 12 16 30 26 19 16 20 20 17 16 17 16 15 16 15 17 18 18 15 12 9 20
30 34 34 36 36 26 46 37 45 43 48 36 30 34 29 27 25 24 29 29 30 25 28 29 24 23 21 14 13 12 11 10 12 10 13 11 15 14 15 15 14 11 14 18
31 32 32 32 31 28 34 41 43 43 36 36 37 36 30 28 28 27 31 28 30 25 18 15 12 11 14 9 5 3 1 2 5 11 12 19 16 16 16 18 24 23 21 14
28 29 26 23 24 20 37 42 42 42 39 39 39 35 29 30 32 32 23 17 16 21 18 14 7 4 6 7 5 6 5 5 8 9 19 15 21 16 18 22 22 26 30 31
27 15 8 9 9 24 34 10 43 46 41 43 39 32 31 28 26 23 22 15 20 9 18 15 14 6 7 10 3 10 11 9 9 8 14 18 16 18 17 18 26 27 30 32
Wind_Direction_850mb
271 270 268 265 261 216 236 252 248 254 264 174 165 81 239 182 103 100 149 153 192 179 179 188 192 200 201 205 202 194 203 199 209 214 211 203 221 211 199 215 214 211 219 226
268 266 260 262 266 262 218 228 251 264 271 93 115 46 277 192 166 165 166 207 182 181 180 191 197 205 206 199 208 194 209 202 207 215 201 208 221 210 206 198 204 211 208 208
251 251 257 252 246 258 258 225 222 246 258 230 83 318 156 115 126 162 170 173 261 181 188 196 204 212 207 199 213 203 212 202 214 221 207 206 212 214 203 207 215 212 216 212
269 283 242 256 254 247 253 267 237 228 247 259 157 203 97 91 87 112 118 145 256 228 192 197 204 209 205 208 215 217 217 211 215 223 203 205 205 214 214 213 214 216 219 227
275 266 327 305 254 251 237 249 259 265 252 232 165 127 134 122 114 103 100 147 230 226 231 203 202 207 207 211 217 223 229 222 214 224 214 215 214 216 214 215 216 219 221 224
220 215 258 237 280 279 271 232 229 247 254 246 209 198 128 126 116 109 98 98 98 138 120 161 187 202 205 210 217 231 232 234 222 230 226 222 224 222 224 220 220 219 218 219
230 241 253 224 277 290 251 244 222 214 235 231 156 121 126 123 121 117 107 92 87 92 108 108 164 213 220 224 237 244 245 245 243 237 235 230 231 234 230 225 223 218 221 217
319 271 248 37 345 332 338 296 228 209 216 112 111 112 125 123 127 126 110 96 90 91 83 81 102 227 231 238 247 241 236 239 244 248 239 237 231 233 233 236 228 229 218 215
209 264 330 336 332 312 285 280 79 141 117 118 116 118 130 140 129 119 108 99 94 98 114 123 160 142 174 225 227 235 250 245 243 247 244 242 244 241 220 254 254 253 245 232
312 356 352 327 318 279 292 10 68 81 103 120 125 131 130 125 130 123 116 98 94 91 132 340 350 342 227 241 241 246 247 244 251 253 255 253 247 231 229 258 287 253 264 267
276 295 330 300 1 214 253 317 93 95 78 85 111 105 116 123 117 113 120 133 148 97 128 61 331 309 269 301 269 225 240 258 281 290 287 276 273 252 258 244 247 237 239 227
197 166 271 316 328 248 257 234 96 96 95 94 106 118 123 117 110 107 115 149 161 103 87 71 48 324 345 8 359 173 250 284 287 266 275 292 298 278 265 274 247 234 237 246
215 184 190 147 271 239 91 104 103 105 111 116 118 127 127 121 113 103 96 95 105 104 81 67 112 332 295 22 23 12 241 246 259 274 273 281 268 278 287 282 259 254 262 264
264 202 188 205 219 121 129 112 101 107 112 116 120 119 129 134 113 117 113 117 118 131 93 87 159 228 274 306 313 319 324 353 334 279 268 260 236 242 228 248 257 258 260 274
118 274 282 181 46 110 128 126 132 131 132 130 130 128 134 139 131 132 207 230 132 133 136 138 71 25 33 48 20 7 350 307 316 319 351 326 313 298 287 267 258 260 280 283
226 25 325 182 159 189 178 191 190 157 162 169 160 153 145 136 185 139 136 124 156 169 55 53 336 280 143 94 53 322 342 336 248 319 351 359 292 305 302 314 326 332 301 288
328 301 290 276 295 249 216 213 216 213 181 183 165 153 158 158 150 146 156 119 103 96 55 15 328 306 204 164 187 197 340 330 76 25 265 252 303 326 326 317 316 301 299 335
275 276 275 277 278 272 267 263 274 200 163 172 160 155 161 163 166 162 166 191 111 110 10 307 295 112 64 62 93 105 346 274 300 273 238 288 280 298 316 319 324 318 328 349
289 268 263 255 254 260 264 263 289 250 170 161 157 158 158 160 158 163 168 183 160 172 47 84 94 83 65 61 134 110 84 57 21 24 13 2 2 332 267 269 269 288 275 291
325 312 300 279 267 260 266 267 202 222 144 140 149 153 153 156 153 155 167 146 128 168 161 171 112 94 56 114 107 151 142 42 29 30 27 42 5 336 323 298 283 268 284 268
327 322 310 303 276 260 252 261 184 154 144 133 146 153 160 155 168 162 170 169 189 146 154 136 131 129 120 177 112 32 107 65 64 45 16 17 23 26 14 1 340 345 353 311
322 319 310 300 309 247 236 197 179 145 134 150 160 163 162 159 161 157 114 162 158 142 132 134 180 145 129 78 72 87 78 71 62 54 46 37 28 22 17 19 6 13 3 353
316 317 307 299 294 298 205 193 176 166 149 167 169 170 163 163 156 158 138 138 136 121 140 154 139 129 100 95 87 83 85 76 66 58 47 40 46 35 21 10 3 352 25 1
313 314 305 289 288 280 208 173 183 159 149 163 168 157 156 153 145 143 147 152 141 129 125 127 139 135 117 106 91 79 71 66 61 23 14 14 20 36 4 351 355 360 345 346
304 306 302 288 282 251 217 167 145 137 152 159 160 159 159 158 150 147 142 158 157 148 134 117 122 136 152 113 82 68 96 124 52 71 30 354 343 332 337 325 309 317 336 306
298 299 292 290 273 232 200 166 154 153 164 156 157 158 151 158 147 158 164 155 160 174 191 215 174 121 141 184 185 258 288 133 41 52 9 348 6 14 9 8 8 11 356 342
287 283 284 267 211 167 178 226 152 150 155 150 154 155 150 151 167 171 178 191 208 214 211 217 177 165 234 193 26 57 80 68 54 22 4 353 6 7 358 360 357 344 335 325